EHI
0 0 0 0 0 0 0 0 0 0 0 1 0 0 0 1 5 13 17 16 13 13 17 20 19 17 16 16 17 16 17 27 39 46 48 50 49 47 44 37 26 18 11 8
0 0 0 0 0 0 0 0 0 0 1 1 1 0 2 4 8 14 17 17 15 15 17 20 20 18 18 19 20 21 23 29 37 41 42 45 44 42 41 35 27 21 14 10
0 0 0 0 0 0 0 0 0 2 4 4 2 2 5 8 12 14 14 14 14 13 14 15 17 17 19 21 22 24 27 30 34 35 35 35 33 34 34 31 28 23 16 11
0 0 0 0 0 0 0 0 0 4 8 7 4 4 6 8 10 11 9 8 8 8 7 8 10 12 15 17 18 18 20 23 25 26 27 25 24 25 26 25 23 20 14 10
0 0 0 0 0 0 0 0 0 4 9 7 4 4 4 5 6 6 5 3 3 3 3 3 4 5 7 9 10 9 10 11 13 15 17 18 18 19 20 19 16 13 9 7
0 0 0 0 0 0 0 0 0 2 5 4 3 3 3 3 3 2 1 0 0 0 1 1 1 1 2 3 4 3 3 5 6 6 9 11 13 14 15 14 12 8 5 4
0 0 0 0 0 0 0 0 0 1 2 4 4 5 3 2 1 0 0 0 0 0 0 0 0 1 1 1 1 1 0 1 1 2 3 5 7 8 9 9 8 7 4 3
0 0 0 0 0 0 1 0 0 2 4 7 7 5 3 1 0 0 0 0 0 0 0 0 0 0 0 0 0 0 0 0 0 0 0 1 2 2 3 4 4 5 4 2
0 0 0 0 0 0 0 1 2 4 7 7 6 3 1 0 0 0 0 0 0 0 0 0 0 0 0 0 0 0 0 0 0 0 0 0 0 0 1 1 1 2 1 1
0 0 0 0 0 0 0 2 4 6 5 3 2 0 0 0 0 0 0 0 0 0 0 0 0 0 0 0 0 0 0 0 0 0 0 0 0 0 0 0 0 0 0 0
0 0 0 0 0 0 0 2 4 4 2 1 0 0 0 0 0 0 0 0 0 0 0 0 0 0 0 0 0 0 0 0 0 0 0 0 0 0 0 0 0 0 0 0
0 0 0 0 0 0 0 1 2 2 2 1 0 0 0 0 0 0 0 0 0 0 0 0 0 0 0 0 0 0 0 0 0 0 0 0 0 0 0 0 0 0 0 0
0 0 0 0 0 0 0 0 0 1 2 1 0 0 0 0 0 0 0 0 0 0 0 0 0 0 0 0 0 0 0 0 0 0 0 0 0 0 0 0 0 0 0 0
0 0 0 0 0 0 0 0 0 1 1 0 0 0 0 0 0 0 0 0 0 0 0 0 0 0 0 0 0 0 0 0 0 0 0 0 0 0 0 0 0 0 0 0
0 0 0 0 1 0 0 0 0 0 0 0 0 0 0 0 0 0 0 0 0 0 0 0 0 0 0 0 0 0 0 0 0 0 0 0 0 0 0 0 0 0 0 0
0 0 0 0 0 0 0 0 0 0 0 0 0 0 0 0 0 0 0 0 0 0 0 0 0 0 0 0 0 0 0 0 0 0 0 0 0 0 0 0 0 0 0 0
0 0 0 0 0 0 0 0 0 0 0 0 0 0 0 0 0 0 0 0 0 0 0 0 0 0 0 0 0 0 0 0 0 0 0 0 0 0 0 0 0 0 0 0
0 0 0 0 0 0 0 0 0 0 0 0 0 0 0 0 0 0 0 0 0 0 0 0 0 0 0 0 0 0 0 0 0 0 0 0 0 0 0 0 0 0 0 0
0 0 0 0 0 0 0 0 0 0 0 0 0 0 0 0 0 0 0 0 0 0 0 0 0 0 0 0 0 0 0 0 0 0 0 0 0 0 0 0 0 0 0 0
0 0 0 0 0 0 0 0 0 0 0 0 0 0 0 0 0 0 0 0 0 0 0 0 0 0 0 0 0 0 0 0 0 0 0 0 0 0 0 0 0 0 0 0
0 0 0 0 0 0 0 0 0 0 0 0 0 0 0 0 0 0 0 0 0 0 0 0 0 0 0 0 0 0 0 0 0 0 0 0 0 0 0 0 0 0 0 0
0 0 0 0 0 0 0 0 0 0 0 0 0 0 0 0 0 0 0 0 0 0 0 0 0 0 0 0 0 0 0 0 0 0 0 0 0 0 0 0 0 0 0 0
0 0 0 0 0 0 0 0 0 0 0 0 0 0 0 0 0 0 0 0 0 0 0 0 0 0 0 0 0 0 0 0 0 0 0 0 0 0 0 0 0 0 0 0
0 0 0 0 0 0 0 0 0 0 0 0 0 0 0 0 0 0 0 0 0 0 0 0 0 0 0 0 0 0 0 0 0 0 0 0 0 0 0 0 0 0 0 0
0 0 0 0 0 0 0 0 0 0 0 0 0 0 0 0 0 0 0 0 0 0 0 0 0 0 0 0 0 0 0 0 0 0 0 0 0 0 0 0 0 0 0 0
0 0 0 0 0 0 0 0 0 0 0 0 0 0 0 0 0 0 0 0 0 0 0 0 0 0 0 0 0 0 0 0 0 0 0 0 0 0 0 0 0 0 0 0
0 0 0 0 0 0 0 0 0 0 0 0 0 0 0 0 0 0 0 0 0 0 0 0 0 0 0 0 0 0 0 0 0 0 0 0 0 0 0 0 0 0 0 0
Wind_Speed
8 4 5 7 7 8 10 9 10 7 5 3 4 4 4 3 3 4 3 3 3 4 5 6 7 7 7 8 8 8 9 9 9 9 8 8 9 9 9 10 11 10 11 11
9 8 8 9 9 9 10 9 9 8 2 6 6 5 6 6 6 6 6 5 4 3 2 1 2 3 4 4 5 5 6 7 6 6 6 7 8 8 8 9 9 9 10 11
10 7 8 12 10 9 8 7 7 7 2 9 8 8 8 8 9 10 9 8 9 7 6 5 4 3 2 2 1 1 2 3 3 3 4 5 6 6 7 7 8 9 10 10
8 7 12 4 3 3 6 4 3 2 8 9 11 11 10 9 10 11 11 11 11 10 10 9 9 7 6 6 5 4 3 2 1 1 1 2 3 4 4 5 6 7 8 10
8 10 10 5 3 3 5 4 3 6 11 14 15 14 12 10 10 11 11 10 10 10 11 11 11 10 10 9 9 8 6 5 5 4 3 2 2 2 3 4 5 6 6 8
8 9 8 1 6 2 4 5 6 9 13 15 13 7 9 9 10 11 10 10 9 10 11 11 10 11 11 11 11 9 8 7 7 6 6 5 4 4 3 3 4 6 6 7
9 9 4 6 5 4 6 3 7 9 12 12 6 7 14 12 11 10 10 10 9 10 10 10 10 10 11 10 9 8 8 8 8 7 6 6 5 4 4 4 5 5 6 7
6 8 2 6 4 2 4 4 6 8 10 10 14 17 15 13 11 10 9 9 10 9 9 8 8 9 10 9 8 7 7 8 8 8 7 6 6 5 5 5 5 5 6 7
2 2 6 3 3 4 3 5 7 9 12 16 18 17 15 13 11 9 8 8 8 9 8 8 8 8 9 7 6 6 6 7 7 7 6 6 6 6 5 4 5 6 6 7
2 3 4 3 3 3 4 6 9 12 15 17 17 16 14 11 9 8 7 7 6 7 7 7 6 7 6 5 5 5 6 6 5 5 6 6 6 6 6 6 7 7 8 8
4 2 4 4 3 6 9 11 13 15 15 16 16 14 12 10 8 6 6 5 5 5 5 5 5 5 5 5 5 5 5 6 6 6 6 6 5 5 6 6 5 7 9 9
3 3 1 5 6 9 12 14 15 16 16 14 13 12 10 8 6 5 5 4 3 4 4 4 4 4 4 4 5 6 6 7 7 7 6 7 7 7 4 5 5 8 10 10
3 4 6 9 10 12 14 15 15 16 16 14 12 10 8 6 5 4 3 3 3 3 3 3 3 3 4 4 5 6 7 7 7 8 8 8 8 9 10 7 8 11 12 12
6 8 10 11 12 13 15 16 16 15 14 12 10 8 7 5 4 3 2 2 2 1 2 2 3 3 4 5 5 7 8 6 7 7 8 9 9 10 10 11 11 10 8 9
5 6 11 14 14 15 15 15 14 12 11 9 7 6 5 3 2 2 1 1 1 2 3 3 4 4 5 6 7 8 8 7 7 9 10 9 9 10 10 12 11 11 11 10
10 13 15 15 15 14 14 13 11 10 8 7 5 4 2 1 1 0 0 1 3 4 4 4 5 5 6 7 8 8 7 3 5 9 10 9 9 10 10 11 11 11 11 12
13 14 14 14 13 12 11 10 8 7 6 5 3 2 1 0 1 2 3 3 3 3 3 4 5 6 6 7 8 8 8 7 6 8 8 9 9 10 10 11 11 11 11 11
11 12 12 12 11 10 8 7 6 5 3 2 1 0 1 2 3 4 4 5 4 3 3 5 5 6 6 7 7 8 8 8 8 8 8 8 9 10 10 11 11 12 11 12
13 13 12 11 9 7 6 4 3 2 2 2 2 2 3 3 4 5 5 5 4 3 5 6 3 5 6 7 9 7 7 9 9 8 8 9 9 10 10 11 11 11 12 11
13 12 11 9 7 6 4 3 3 3 3 2 3 3 4 4 5 5 5 3 5 6 5 5 5 6 7 8 9 8 8 8 9 9 9 9 10 10 10 11 11 11 11 11
10 9 8 6 5 4 3 3 3 3 3 3 3 4 4 4 4 4 5 3 6 6 4 1 4 7 8 9 9 7 8 8 9 9 9 9 10 10 10 11 11 11 11 11
6 6 5 4 3 3 3 2 3 3 3 3 4 4 4 4 4 3 5 5 6 4 3 5 7 9 10 11 7 8 8 8 8 8 8 9 9 9 10 11 10 10 10 10
4 4 3 4 3 3 2 2 3 3 4 4 4 4 5 5 4 4 4 5 5 4 4 8 8 9 13 7 7 7 8 8 8 8 8 9 9 9 9 10 10 10 10 10
3 3 3 3 3 2 3 4 4 3 3 2 3 4 4 3 2 5 7 7 5 3 5 7 5 9 9 5 6 7 7 8 8 8 9 9 9 9 9 9 10 10 10 12
3 3 3 3 3 3 2 3 3 2 2 2 3 4 4 4 4 5 6 7 5 2 4 5 1 7 6 7 7 7 6 7 8 8 8 8 9 9 9 9 10 10 10 10
3 3 3 4 4 4 4 4 4 3 3 2 3 3 4 5 6 5 4 5 5 3 4 4 4 4 6 6 6 7 7 7 7 7 9 8 9 9 9 10 13 10 10 10
3 2 2 3 2 3 4 4 4 3 3 2 2 3 4 4 4 4 4 4 3 4 4 4 5 5 6 6 7 7 7 7 7 8 8 8 9 9 10 12 10 10 10 11
Wind_Direction
254 242 228 237 229 218 238 269 284 297 306 45 53 51 54 66 97 116 126 145 177 198 199 203 207 213 219 225 225 222 219 221 223 221 222 223 222 221 218 216 218 219 223 226
233 225 229 241 244 241 248 260 267 274 285 90 97 88 76 70 78 87 86 84 85 87 111 154 192 201 206 218 222 217 222 228 230 226 224 224 222 220 220 222 226 225 227 231
236 210 229 241 242 245 245 248 266 276 119 134 119 90 76 73 75 73 72 71 69 66 62 54 47 57 88 94 110 160 207 232 229 228 233 237 236 229 228 231 232 233 236 237
245 218 244 264 64 276 266 258 249 163 133 130 114 100 82 75 80 78 73 70 67 67 67 65 61 59 62 72 72 72 65 51 42 254 249 255 252 251 250 248 247 245 246 247
244 241 247 184 158 213 238 230 190 160 141 133 133 122 91 78 78 78 75 71 69 68 69 66 66 66 65 64 61 55 49 42 36 31 31 17 345 313 292 277 268 264 261 261
232 256 261 87 108 143 242 207 152 160 157 157 170 163 111 102 92 85 79 74 72 73 70 66 64 67 69 62 57 49 44 44 44 40 33 27 17 356 340 308 291 285 281 275
234 245 254 84 118 188 239 81 140 164 168 174 172 93 118 118 105 98 92 87 80 72 69 66 66 66 67 62 56 49 46 48 46 39 37 32 19 9 354 336 323 308 301 293
236 245 218 112 158 238 52 94 151 158 156 136 113 115 122 120 115 108 101 94 88 81 74 67 66 72 73 65 55 51 48 46 42 34 23 25 17 7 356 341 318 308 304 299
256 62 85 122 83 73 100 123 138 141 134 129 128 127 125 121 117 111 102 95 92 92 85 75 67 65 68 66 55 50 44 39 33 28 24 15 0 353 341 337 323 323 318 311
238 121 110 115 115 126 129 128 129 128 129 129 127 126 125 122 119 114 105 97 92 86 82 77 67 63 61 54 40 32 26 18 11 5 1 7 344 343 341 338 335 331 324 318
236 110 124 111 115 127 124 123 122 122 123 125 125 126 126 124 123 118 112 99 86 81 76 71 65 56 46 37 18 7 0 350 341 341 348 332 328 329 323 331 341 317 318 316
334 68 104 112 123 130 129 127 126 124 121 120 119 119 119 117 118 117 109 101 85 69 58 49 47 48 37 21 4 346 339 338 332 329 333 322 319 313 274 263 242 237 250 269
38 73 97 117 124 127 126 124 124 122 121 118 116 117 118 120 125 120 109 91 69 50 40 28 16 16 14 2 347 338 326 328 324 325 324 320 317 314 312 295 245 238 240 243
106 110 114 119 120 121 121 121 118 116 116 117 119 121 123 129 128 117 94 72 53 28 10 1 352 359 353 339 327 321 314 318 312 316 316 314 314 312 310 310 311 308 283 254
107 115 123 121 120 121 121 120 118 117 117 116 120 127 130 125 118 113 97 55 342 321 346 345 343 352 346 331 326 318 313 320 330 321 311 311 314 312 310 312 312 312 312 306
114 117 122 123 123 123 122 121 118 120 122 126 131 134 128 124 123 93 297 302 315 337 347 341 341 348 341 332 323 311 310 333 316 311 310 318 321 319 318 317 315 315 314 316
123 124 125 123 121 117 115 113 116 121 128 134 137 142 166 253 304 327 321 326 322 324 335 342 346 344 340 339 327 321 325 327 313 305 323 329 325 321 318 316 315 316 314 320
112 112 113 113 111 109 109 113 121 127 129 129 140 149 324 326 334 342 333 328 317 321 13 18 8 342 350 360 340 325 324 325 329 330 330 330 328 317 317 318 318 317 315 316
103 103 102 101 103 107 112 115 116 101 70 34 355 345 333 330 335 333 329 322 322 342 32 33 1 334 0 14 339 316 329 333 333 334 331 330 320 324 325 322 320 319 318 318
98 97 96 95 93 89 87 77 62 51 35 11 349 343 340 343 342 336 333 354 29 24 32 21 354 10 1 10 337 330 342 340 339 338 337 334 332 329 326 324 323 320 318 317
95 96 95 91 84 74 61 45 34 26 13 354 343 339 338 340 344 346 332 21 68 35 26 38 15 17 6 344 317 342 353 351 346 344 341 335 331 330 329 326 322 320 320 319
89 84 77 68 60 55 41 20 11 359 358 354 346 343 337 336 353 32 57 44 66 21 353 35 34 21 347 321 347 3 1 356 349 345 339 335 332 331 330 328 324 323 322 322
69 61 50 40 35 29 12 358 2 357 354 353 355 355 354 2 1 0 59 65 62 26 28 48 27 356 324 333 12 7 3 357 351 345 341 338 336 334 331 329 328 327 326 327
49 38 27 12 348 329 340 351 353 349 343 340 12 14 352 353 50 58 79 91 63 22 58 67 13 337 320 10 17 10 4 358 355 351 347 344 340 337 336 335 333 333 332 332
25 7 356 333 312 328 340 314 301 302 308 5 42 45 27 31 53 73 82 85 78 19 63 93 64 324 5 27 18 10 6 7 358 348 348 346 343 340 340 339 339 337 337 336
3 340 359 344 343 325 319 322 325 336 344 9 41 54 61 72 82 86 87 87 82 61 41 43 40 18 27 25 21 12 7 5 359 356 355 349 346 346 345 343 342 342 339 338
290 291 286 296 311 326 327 328 330 341 357 18 45 69 75 79 83 82 82 75 64 53 46 42 37 31 28 24 23 17 13 8 4 1 356 355 352 348 346 345 344 343 342 341